Weather History for Eilat, Israel

Change the Weather History Date:

Sunday, September 1, 2013

  Actual Average Record
Temperature  
Mean Temperature 92 °F -  
Max Temperature 103 °F 97 °F 105 °F (2012)
Min Temperature 82 °F 76 °F 77 °F (2010)
Cooling Degree Days 28    
Growing Degree Days 42 (Base 50)    
Moisture  
Dew Point 62 °F    
Average Humidity 36    
Maximum Humidity 62    
Minimum Humidity 15    
Precipitation  
Precipitation 0.00 in -12.69 in - ()
Sea Level Pressure  
Sea Level Pressure 29.74 in    
Wind  
Wind Speed 9 mph ()    
Max Wind Speed 17 mph    
Max Gust Speed -    
Averages and records for this station are not official NWS values.
T = Trace of Precipitation, MM = Missing Value Source: Averaged Metar Reports

Daily Weather History Graph

Daily Weather History Graph

Search for Another Location

Airport:

Trip Planner

Search our weather history database for the weather conditions in past years. The results will help you decide how hot, cold, wet, or windy it might be!

Date:

Astronomy

Sep. 01, 2013 Rise Set
Actual Time 6:17 AM IDT 7:02 PM IDT
Civil Twilight 5:53 AM IDT 7:26 PM IDT
Nautical Twilight 5:24 AM IDT 7:55 PM IDT
Astronomical Twilight 4:55 AM IDT 8:24 PM IDT
Moon 2:32 AM IDT (9/1) 4:16 PM IDT (9/1)
Length of Visible Light 13h 33m
Length of Day
12h 44m
Waning Crescent, 16% of the Moon is Illuminated
Sep 1
Waning Crescent
Sep 5
New
Sep 12
First Quarter
Sep 19
Full
Sep 27
Last Quarter

Hourly Weather History & Observations

Time (IDT) Temp. Heat Index Dew Point Humidity Pressure Visibility Wind Dir Wind Speed Gust Speed Precip Events Conditions
12:50 AM 89.6 °F 90.1 °F 62.6 °F 40% 29.77 in - North 10.4 mph - N/A   Clear
3:00 AM 85 °F - 66 °F 43% 29.75 in - NNW 4.6 mph - -  
5:28 AM 84.2 °F 87.3 °F 68.0 °F 58% 29.77 in - North 10.4 mph - N/A   Clear
5:50 AM 82.4 °F 85.4 °F 68.0 °F 62% 29.77 in - North 9.2 mph - N/A   Clear
6:50 AM 84.2 °F 86.6 °F 66.2 °F 55% 29.77 in - North 9.2 mph - N/A   Clear
7:50 AM 84.2 °F 87.3 °F 68.0 °F 58% 29.80 in - ENE 6.9 mph - N/A   Clear
8:50 AM 86.0 °F 88.2 °F 66.2 °F 51% 29.80 in - NE 10.4 mph - N/A   Clear
9:00 AM 88 °F - 66 °F 39% 29.79 in - NNE 4.6 mph - -  
9:50 AM 87.8 °F 90.4 °F 66.2 °F 49% 29.80 in - NE 13.8 mph - N/A   Clear
10:50 AM 91.4 °F 94.0 °F 66.2 °F 43% 29.80 in - ENE 12.7 mph - N/A   Clear
11:50 AM 93.2 °F 94.9 °F 64.4 °F 38% 29.77 in - ENE 11.5 mph - N/A   Clear
12:50 PM 96.8 °F 98.0 °F 62.6 °F 32% 29.74 in - ENE 10.4 mph - N/A   Clear
1:50 PM 98.6 °F 100.0 °F 62.6 °F 30% 29.71 in - ENE 13.8 mph - N/A   Clear
2:50 PM 102.2 °F 103.6 °F 60.8 °F 26% 29.68 in - NE 15.0 mph - N/A   Clear
3:00 PM 102 °F - 61 °F 17% 29.67 in - NE 6.9 mph - -  
3:50 PM 102.2 °F 103.6 °F 60.8 °F 26% 29.68 in - NE 16.1 mph - N/A   Clear
4:50 PM 102.2 °F 102.4 °F 59.0 °F 24% 29.68 in - NE 17.3 mph - N/A   Clear
5:50 PM 102.2 °F 102.4 °F 59.0 °F 24% 29.68 in - NE 17.3 mph - N/A   Clear
6:50 PM 100.4 °F 98.8 °F 55.4 °F 22% 29.68 in - North 13.8 mph - N/A   Clear
7:50 PM 98.6 °F 96.4 °F 53.6 °F 22% 29.71 in - North 10.4 mph - N/A   Clear
8:50 PM 96.8 °F 94.4 °F 53.6 °F 23% 29.74 in - NNW 11.5 mph - N/A   Clear
9:00 PM 96 °F - 53 °F 15% 29.73 in - NNW 6.9 mph - -  
9:50 PM 95.0 °F 92.7 °F 53.6 °F 25% 29.77 in - North 10.4 mph - N/A   Clear
10:50 PM 93.2 °F 93.3 °F 60.8 °F 34% 29.77 in - North 11.5 mph - N/A   Clear
11:50 PM 91.4 °F 93.2 °F 64.4 °F 41% 29.77 in - NE 12.7 mph - N/A   Clear